Weather reports worldwide

Advertisment
Spadeadam, United Kingdom (3224): temperature & dewpoint: 10.07.2018 23:00:00 - 16.07.2018 23:00:00 (BST)Spadeadam, United Kingdom (3224): temperature -20cm: 10.07.2018 23:00:00 - 16.07.2018 23:00:00 (BST)Spadeadam, United Kingdom (3224): wind speed: 10.07.2018 23:00:00 - 16.07.2018 23:00:00 (BST)Spadeadam, United Kingdom (3224): wind direction: 10.07.2018 23:00:00 - 16.07.2018 23:00:00 (BST)Spadeadam, United Kingdom (3224): reduced air pressure: 10.07.2018 23:00:00 - 16.07.2018 23:00:00 (BST)Spadeadam, United Kingdom (3224): visibility: 10.07.2018 23:00:00 - 16.07.2018 23:00:00 (BST)Spadeadam, United Kingdom (3224): precipitation: 10.07.2018 23:00:00 - 16.07.2018 23:00:00 (BST)
Date & Time tt [°C] td [°C] tt -20cm [°C] ff [km/h] ff [kn] dd ppp [hPa] vv [km] rr [mm]
16.07.2018 23:00:00 12,0 12,0 - 11 6 WSW - 1,8 -
16.07.2018 22:00:00 11,8 11,6 - 11 6 W 1013,0 8 -
16.07.2018 21:00:00 11,8 11,4 - 9 5 WSW 1012,9 10 0,4
16.07.2018 20:00:00 12,2 11,3 - 15 8 W 1012,5 10 0,8
16.07.2018 19:00:00 13,8 11,3 - 11 6 WSW 1012,5 10 0,2
16.07.2018 18:00:00 15,8 8,4 - 18 10 WSW 1012,2 50 0,0
16.07.2018 17:00:00 18,2 11,3 - 15 8 SW 1011,7 10 0,0
16.07.2018 16:00:00 18,9 11,7 - 16 9 WSW 1011,8 10 0,0
16.07.2018 15:00:00 18,0 12,0 - 18 10 SW 1012,2 30 0,0
16.07.2018 14:00:00 16,3 11,7 - 16 9 WSW 1012,6 10 0,0
16.07.2018 13:00:00 15,7 12,0 - 18 10 SW 1012,7 10 0,0
16.07.2018 12:00:00 15,9 12,6 - 21 11 WSW 1012,5 30 0,0
16.07.2018 11:00:00 15,4 13,0 - 22 12 WSW 1012,5 10 0,0
16.07.2018 10:00:00 15,2 14,1 17,7 21 11 WSW 1012,2 10 0,0
16.07.2018 09:00:00 15,5 15,1 - 13 7 SW 1011,8 10 0,0
16.07.2018 08:00:00 15,1 15,1 - 8 4 SSW 1011,8 23 0,0
16.07.2018 07:00:00 14,6 14,6 - 8 4 SW 1011,7 7 0,2
16.07.2018 06:00:00 14,6 14,6 - 13 7 WSW 1011,8 6 0,0
16.07.2018 05:00:00 14,7 14,4 - 13 7 WSW 1011,9 3,8 0,0
16.07.2018 04:00:00 14,8 14,3 - 16 9 SSW 1012,2 4,0 0,0
16.07.2018 03:00:00 14,3 14,1 - 11 6 SW 1012,5 9 0,0
16.07.2018 02:00:00 14,4 14,0 - 9 5 SW 1012,8 6 0,0
16.07.2018 01:00:00 15,0 13,8 - 11 6 SW 1013,0 15 0,0
16.07.2018 00:00:00 14,0 13,3 - 9 5 S 1013,4 11 0,0
15.07.2018 23:00:00 14,3 13,3 - 5 3 WSW 1013,4 22 0,0
15.07.2018 22:00:00 14,2 12,4 - 9 5 WSW 1013,4 23 0,0
15.07.2018 21:00:00 16,6 12,7 - 16 9 W 1013,1 10 0,0
15.07.2018 20:00:00 18,7 14,2 - 21 11 W 1012,8 30 0,0
15.07.2018 19:00:00 20,6 12,9 - 21 11 WSW 1012,6 10 0,0
15.07.2018 18:00:00 21,1 13,9 - 22 12 W 1012,7 10 0,0
15.07.2018 17:00:00 20,1 14,0 - 26 14 W 1013,2 10 0,0
15.07.2018 16:00:00 21,2 13,9 - 26 14 WSW 1013,1 35 0,0
15.07.2018 15:00:00 21,3 13,3 - 26 14 WSW 1013,0 50 0,0
15.07.2018 14:00:00 22,2 11,5 - 21 11 SW 1013,1 30 0,0
15.07.2018 13:00:00 21,8 12,5 - 21 11 SW 1013,3 10 0,0
15.07.2018 12:00:00 22,3 12,5 - 22 12 SSW 1013,4 10 0,0
15.07.2018 11:00:00 20,6 11,7 - 28 15 SW 1013,7 30 0,0
15.07.2018 10:00:00 19,3 12,6 17,2 24 13 SW 1014,1 10 0,0
15.07.2018 09:00:00 18,0 12,7 - 24 13 WSW 1014,4 35 0,0
15.07.2018 08:00:00 16,6 13,6 - 18 10 SW 1014,6 28 0,0
15.07.2018 07:00:00 14,4 13,4 - 11 6 SW 1014,8 35 0,0
15.07.2018 06:00:00 12,5 12,4 - 15 8 SW 1014,9 10 0,0
15.07.2018 05:00:00 10,1 9,9 - 2 1 N 1015,5 8 0,0
15.07.2018 04:00:00 10,5 10,3 - 0 0 N 1015,9 10 0,0
15.07.2018 03:00:00 11,5 11,4 - 5 3 WSW 1015,9 8 0,0
15.07.2018 02:00:00 11,3 11,2 - 11 6 WSW 1016,2 5 0,0
15.07.2018 01:00:00 12,1 11,8 - 11 6 WSW 1016,5 6 0,0
15.07.2018 00:00:00 12,8 12,3 - 13 7 W 1016,7 9 0,0
14.07.2018 23:00:00 13,1 12,0 - 13 7 W 1016,8 10 0,0
14.07.2018 22:00:00 13,5 10,5 - 13 7 W 1016,8 35 0,0
14.07.2018 21:00:00 16,1 11,3 - 15 8 W 1016,5 50 0,0
14.07.2018 20:00:00 19,0 11,4 - 26 14 W 1016,1 10 0,0
14.07.2018 19:00:00 19,5 12,4 - 22 12 W 1016,2 50 0,0
14.07.2018 18:00:00 20,2 12,6 - 28 15 W 1016,4 10 0,0
14.07.2018 17:00:00 20,9 12,9 - 29 16 W 1016,4 10 0,0
14.07.2018 16:00:00 21,6 12,9 - 28 15 WSW 1016,7 45 0,0
14.07.2018 15:00:00 21,8 12,9 - 28 15 WSW 1017,0 40 0,0
14.07.2018 14:00:00 21,0 13,2 - 26 14 W 1017,6 10 0,0
14.07.2018 13:00:00 19,7 11,9 - 24 13 W 1017,9 10 0,0
14.07.2018 12:00:00 20,0 11,4 - 24 13 WSW 1017,9 10 0,0
14.07.2018 11:00:00 18,6 12,0 - 18 10 WSW 1018,5 27 0,0
14.07.2018 10:00:00 16,8 12,1 17,0 21 11 WSW 1018,9 10 0,0
14.07.2018 09:00:00 14,5 12,3 - 15 8 W 1019,4 10 0,0
14.07.2018 08:00:00 13,3 11,9 - 16 9 WSW 1019,6 12 0,0
14.07.2018 07:00:00 12,9 12,2 - 13 7 WSW 1019,8 9 0,0
14.07.2018 06:00:00 12,5 12,4 - 16 9 W 1019,8 7 0,0
14.07.2018 05:00:00 12,8 12,8 - 8 4 WSW 1019,8 3,1 0,0
14.07.2018 04:00:00 12,8 12,8 - 9 5 W 1020,2 3,0 0,0
14.07.2018 03:00:00 12,5 12,5 - 9 5 W 1020,4 3,4 0,0
14.07.2018 02:00:00 12,5 12,1 - 13 7 W 1020,4 9 0,0
14.07.2018 01:00:00 12,9 12,7 - 11 6 W 1020,7 7 0,0
14.07.2018 00:00:00 12,3 11,9 - 9 5 W 1021,0 12 0,0
13.07.2018 23:00:00 12,0 11,2 - 5 3 W 1021,1 14 0,0
13.07.2018 22:00:00 12,9 11,3 - 13 7 W 1021,0 18 0,0
13.07.2018 21:00:00 15,2 13,6 - 13 7 W 1020,4 8 0,0
13.07.2018 20:00:00 16,2 14,1 - 16 9 W 1020,2 9 0,0
13.07.2018 19:00:00 17,9 14,2 - 13 7 W 1020,1 13 0,0
13.07.2018 18:00:00 18,1 14,8 - 11 6 WSW 1020,5 10 0,0
13.07.2018 17:00:00 17,5 14,8 - 15 8 WSW 1020,8 12 0,0
13.07.2018 16:00:00 17,9 14,4 - 16 9 SW 1021,0 10 0,0
13.07.2018 15:00:00 17,0 14,6 - 16 9 SW 1021,5 10 0,6
13.07.2018 14:00:00 17,1 14,1 - 5 3 SSE 1021,6 12 0,0
13.07.2018 13:00:00 17,8 12,8 - 5 3 S 1021,6 10 0,0
13.07.2018 12:00:00 17,9 13,7 - 9 5 ESE 1021,8 10 0,0
13.07.2018 11:00:00 17,0 12,6 - 11 6 ESE 1021,9 10 0,0
13.07.2018 10:00:00 16,5 13,0 17,4 9 5 E 1022,0 10 0,0
13.07.2018 09:00:00 15,2 12,1 - 11 6 E 1022,2 10 0,0
13.07.2018 08:00:00 13,8 12,1 - 9 5 ENE 1022,3 45 0,0
13.07.2018 07:00:00 12,7 11,8 - 9 5 ENE 1022,5 35 0,0
13.07.2018 06:00:00 12,2 11,7 - 9 5 NE 1022,7 10 0,0
13.07.2018 05:00:00 11,9 11,2 - 11 6 NE 1022,8 10 0,0
13.07.2018 04:00:00 12,1 11,3 - 8 4 NE 1022,9 40 0,0
13.07.2018 03:00:00 12,0 11,0 - 9 5 NE 1023,0 45 0,0
13.07.2018 02:00:00 12,3 11,0 - 11 6 ENE 1023,1 50 0,0
13.07.2018 01:00:00 12,4 11,3 - 11 6 NE 1023,6 45 0,0
13.07.2018 00:00:00 12,7 11,3 - 15 8 ENE 1023,5 10 0,0
12.07.2018 23:00:00 13,4 11,3 - 13 7 ENE 1023,5 10 0,0
12.07.2018 22:00:00 14,2 11,5 - 15 8 E 1023,1 45 0,0
12.07.2018 21:00:00 15,8 11,5 - 16 9 E 1022,4 10 0,0
12.07.2018 20:00:00 18,0 11,4 - 15 8 ESE 1021,8 10 0,0
12.07.2018 19:00:00 18,4 11,6 - 18 10 ESE 1021,5 10 0,0
12.07.2018 18:00:00 21,1 12,3 - 16 9 ESE 1021,0 50 0,0
12.07.2018 17:00:00 20,7 12,2 - 11 6 ENE 1021,3 10 0,0
12.07.2018 16:00:00 19,5 11,2 - 8 4 ENE 1021,8 10 0,0
12.07.2018 15:00:00 19,1 11,1 - 13 7 NE 1022,0 10 0,0
12.07.2018 14:00:00 20,3 11,7 - 11 6 ESE 1022,1 10 0,0
12.07.2018 13:00:00 17,9 10,8 - 13 7 ENE 1022,4 10 0,0
12.07.2018 12:00:00 17,8 11,2 - 11 6 E 1022,6 10 0,0
12.07.2018 11:00:00 16,5 11,0 - 11 6 ESE 1022,7 10 0,0
12.07.2018 10:00:00 15,8 10,9 17,2 15 8 SE 1022,7 10 0,0
12.07.2018 09:00:00 13,8 10,9 - 13 7 ENE 1023,2 10 0,0
12.07.2018 08:00:00 13,1 10,7 - 11 6 E 1023,2 45 0,0
12.07.2018 07:00:00 12,2 10,5 - 9 5 E 1023,1 10 0,0
12.07.2018 06:00:00 11,6 10,4 - 8 4 E 1023,1 40 0,0
12.07.2018 05:00:00 11,2 10,1 - 9 5 E 1023,2 10 0,0
12.07.2018 04:00:00 10,9 10,1 - 9 5 E 1023,2 35 0,0
12.07.2018 03:00:00 10,6 10,1 - 15 8 ENE 1023,5 20 0,0
12.07.2018 02:00:00 10,7 10,4 - 11 6 ENE 1023,6 10 0,0
12.07.2018 01:00:00 10,1 9,7 - 13 7 NE 1023,6 10 0,0
12.07.2018 00:00:00 10,5 9,8 - 13 7 NE 1023,5 10 0,0
11.07.2018 23:00:00 11,7 10,2 - 13 7 ENE 1023,4 30 0,0
11.07.2018 22:00:00 13,2 10,5 - 13 7 ENE 1022,9 30 0,0
11.07.2018 21:00:00 15,5 11,3 - 13 7 E 1022,3 10 0,0
11.07.2018 20:00:00 16,5 11,5 - 15 8 E 1022,1 10 0,0
11.07.2018 19:00:00 17,9 11,2 - 15 8 E 1021,7 10 0,0
11.07.2018 18:00:00 20,0 11,1 - 8 4 E 1021,1 10 0,0
11.07.2018 17:00:00 19,9 11,2 - 9 5 ENE 1021,3 10 0,0
11.07.2018 16:00:00 21,5 11,1 - 9 5 SE 1021,2 10 0,0
11.07.2018 15:00:00 19,3 10,2 - 9 5 NE 1021,7 10 0,0
11.07.2018 14:00:00 18,9 8,8 - 9 5 E 1022,1 10 0,0
11.07.2018 13:00:00 17,8 9,7 - 15 8 ENE 1022,6 10 0,0
11.07.2018 12:00:00 15,6 9,8 - 11 6 NE 1023,3 40 0,0
11.07.2018 11:00:00 14,6 9,5 - 9 5 ESE 1023,7 10 0,0
11.07.2018 10:00:00 12,4 8,8 16,7 11 6 NE 1024,1 10 0,0
11.07.2018 09:00:00 11,6 8,6 - 9 5 ENE 1024,3 10 0,0
11.07.2018 08:00:00 11,1 10,0 - 13 7 E 1024,4 10 0,0
11.07.2018 07:00:00 10,2 10,2 - 8 4 ENE 1024,2 16 0,0
11.07.2018 06:00:00 8,8 8,8 - 8 4 NE 1024,2 10 0,0
11.07.2018 05:00:00 7,1 7,1 - 9 5 NE 1024,6 0,3 0,0
11.07.2018 04:00:00 7,9 7,9 - 5 3 NE 1024,6 3,0 0,0
11.07.2018 03:00:00 8,2 8,2 - 11 6 NE 1024,7 4,4 0,0
11.07.2018 02:00:00 8,5 8,2 - 9 5 ENE 1025,0 8 0,0
11.07.2018 01:00:00 8,8 8,4 - 11 6 NE 1025,3 10 0,0
11.07.2018 00:00:00 9,2 8,3 - 9 5 ENE 1025,6 15 0,0
10.07.2018 23:00:00 10,5 8,7 - 11 6 ENE 1025,5 50 0,0

tt = temperature
td = dewpoint
tt -20cm = temperature -20cm
ff = wind speed
dd = wind direction
ppp = reduced air pressure
vv = visibility
rr = precipitation

Next stations